Meteo Giornale » Osservazioni meteo Francia » Cannes

ore: 21:00 - Osservazioni Meteo Cannes
Lat. 43° 33' N Lon. 6° 57' E Alt. 3 metri s.l.m.

sereno

25 °C

Sereno

Temp. 24 Ore

17 °C

29 °C

Nord

1.8 Km/h

Dew point 21 °C

Umidità 78 %

Visibilità  10 Km

Il sole sorge alle ore 06:56

Il sole tramonta alle ore 20:08

Data e Ora Cielo e Fenomeni T °C DP °C Um. % Pres. hPa Vis. km Vento km/h
Oggi h: 21:00 sereno Sereno 25 21 78 1017 10 N 1.8
Oggi h: 20:30 sereno Sereno 25 21 78 1017 10 N 1.8
Oggi h: 20:00 sereno Sereno 25 21 78 1017 10 N 3.7
Oggi h: 19:30 sereno Sereno 26 21 73 1017 10 N 5.5
Oggi h: 19:00 sereno Sereno 27 21 69 1017 10 N 5.5
Oggi h: 18:30 sereno Sereno 27 22 74 1017 10 S 13
Oggi h: 18:00 sereno Sereno 28 22 69 1017 10 S 11.1
Oggi h: 17:30 sereno Sereno 28 20 61 1017 10 S 13
Oggi h: 17:00 sereno Sereno 28 20 61 1017 10 S 13
Oggi h: 16:30 sereno Sereno 28 20 61 1017 10 S/SE 13
Oggi h: 16:00 sereno Sereno 28 21 65 1017 10 S 14.8
Oggi h: 15:30 sereno Sereno 28 21 65 1017 10 S/SE 14.8
Oggi h: 15:00 sereno Sereno 28 21 65 1017 10 S/SE 13
Oggi h: 14:30 sereno Sereno 29 21 62 1017 10 S/SE 9.3
Oggi h: 14:00 sereno Sereno 28 21 65 1017 10 S 14.8
Oggi h: 13:30 sereno Sereno 28 21 65 1017 10 S 14.8
Oggi h: 13:00 sereno Sereno 28 21 65 1017 10 S 13
Oggi h: 12:30 sereno Sereno 28 22 69 1017 10 S/SE 9.3
Oggi h: 12:00 sereno Sereno 28 21 65 1017 10 S 13
Oggi h: 11:30 sereno Sereno 28 21 65 1017 10 S 11.1
Oggi h: 11:00 sereno Sereno 27 20 65 1017 10 S/SE 11.1
Oggi h: 10:30 sereno Sereno 27 20 65 1017 10 S/SE 7.4
Oggi h: 10:00 sereno Sereno 27 19 61 1017 10 N 1.8
Oggi h: 09:30 sereno Sereno 24 15 57 1017 10 N 7.4
Oggi h: 09:00 sereno Sereno 22 13 56 1017 10 N 11.1
Oggi h: 08:30 sereno Sereno 19 13 68 1017 10 N/NO 7.4
Oggi h: 08:00 poco_nuvoloso Poco Nuvoloso 18 12 67 1016 10 N 11.1
Oggi h: 07:30 sereno Sereno 17 12 72 1016 10 N 11.1
Oggi h: 07:00 sereno Sereno 17 12 72 1016 10 N 11.1
Oggi h: 06:30 sereno Sereno 17 12 72 1016 10 N 9.3
Oggi h: 06:00 sereno Sereno 17 12 72 1016 10 N 9.3
Oggi h: 05:30 sereno Sereno 17 12 72 1016 10 N 5.5
Oggi h: 05:00 sereno Sereno 17 13 77 1016 10 N 7.4
Oggi h: 04:30 sereno Sereno 17 13 77 1016 10 N 9.3
Oggi h: 04:00 sereno Sereno 18 14 77 1016 10 N 9.3
Oggi h: 03:30 sereno Sereno 18 15 82 1016 10 N 9.3
Oggi h: 03:00 sereno Sereno 18 16 88 1015 10 N 7.4
Oggi h: 02:30 sereno Sereno 19 16 82 1015 10 N 7.4
Oggi h: 02:00 sereno Sereno 20 17 82 1016 10 N 7.4
Oggi h: 01:30 sereno Sereno 20 18 88 1016 10 N 7.4
Oggi h: 01:00 sereno Sereno 21 19 88 1016 10 N 9.3
Oggi h: 00:30 sereno Sereno 21 19 88 1016 10 N 9.3
Oggi h: 00:00 sereno Sereno 21 19 88 1015 10 N 5.5
Ieri h: 23:30 sereno Sereno 22 20 88 1015 10 N 5.5
Ieri h: 23:00 sereno Sereno 23 20 83 1015 10 N 3.7
Ieri h: 22:30 sereno Sereno 23 20 83 1015 10 N 5.5
Ieri h: 22:00 sereno Sereno 24 20 78 1015 10 N 3.7